Boone Observed Data For Previous 48 Hours

Caption
Day and Hour Reservoir Elevation (behind dam)* Tailwater Elevation (below dam)* Average Hourly Discharge*
2/16/2019 2 AM EST 1,355.45 1,264.86 7,941
2/16/2019 3 AM EST 1,355.44 1,264.85 7,960
2/16/2019 4 AM EST 1,355.42 1,264.86 7,970
2/16/2019 5 AM EST 1,355.40 1,264.86 7,972
2/16/2019 6 AM EST 1,355.39 1,264.88 7,969
2/16/2019 7 AM EST 1,355.37 1,264.88 7,966
2/16/2019 8 AM EST 1,355.35 1,264.85 7,979
2/16/2019 9 AM EST 1,355.34 1,264.85 7,966
2/16/2019 10 AM EST 1,355.33 1,264.87 7,979
2/16/2019 11 AM EST 1,355.32 1,264.86 7,970
2/16/2019 12 PM EST 1,355.31 1,264.86 7,958
2/16/2019 1 PM EST 1,355.29 1,264.88 7,956
2/16/2019 2 PM EST 1,355.28 1,264.87 7,956
2/16/2019 3 PM EST 1,355.27 1,264.88 7,975
2/16/2019 4 PM EST 1,355.25 1,264.86 7,973
2/16/2019 5 PM EST 1,355.23 1,264.87 7,971
2/16/2019 6 PM EST 1,355.18 1,264.84 7,978
2/16/2019 7 PM EST 1,355.10 1,264.90 7,969
2/16/2019 8 PM EST 1,355.04 1,264.87 7,965
2/16/2019 9 PM EST 1,355.03 1,264.87 7,963
2/16/2019 10 PM EST 1,355.00 1,264.87 7,953
2/16/2019 11 PM EST 1,354.98 1,264.87 7,937
2/17/2019 12 AM EST 1,354.96 1,264.87 7,941
2/17/2019 1 AM EST 1,354.94 1,264.86 7,950
2/17/2019 2 AM EST 1,354.92 1,264.87 7,942
2/17/2019 3 AM EST 1,354.89 1,264.89 7,945
2/17/2019 4 AM EST 1,354.87 1,264.83 7,959
2/17/2019 5 AM EST 1,354.85 1,264.86 7,930
2/17/2019 6 AM EST 1,354.83 1,264.88 7,926
2/17/2019 7 AM EST 1,354.80 1,264.87 7,934
2/17/2019 8 AM EST 1,354.77 1,264.86 7,945
2/17/2019 9 AM EST 1,354.75 1,264.87 7,932
2/17/2019 10 AM EST 1,354.74 1,264.85 7,938
2/17/2019 11 AM EST 1,354.74 1,264.87 7,939
2/17/2019 12 PM EST 1,354.76 1,264.85 7,932
2/17/2019 1 PM EST 1,354.77 1,264.84 7,945
2/17/2019 2 PM EST 1,354.84 1,264.86 7,950
2/17/2019 3 PM EST 1,354.91 1,264.86 7,942
2/17/2019 4 PM EST 1,354.97 1,264.85 7,942
2/17/2019 5 PM EST 1,355.02 1,264.89 7,960
2/17/2019 6 PM EST 1,355.05 1,264.88 7,976
2/17/2019 7 PM EST 1,355.05 1,264.84 7,968
2/17/2019 8 PM EST 1,355.06 1,264.89 7,965
2/17/2019 9 PM EST 1,355.01 1,264.86 7,968
2/17/2019 10 PM EST 1,355.00 1,264.87 7,955
2/17/2019 11 PM EST 1,354.99 1,264.87 7,953
2/18/2019 12 AM EST 1,354.98 1,264.90 7,953
2/18/2019 1 AM EST 1,354.99 1,264.85 7,942
2/18/2019 2 AM EST 1,355.00 1,264.86 7,939
2/18/2019 3 AM EST 1,355.00 1,264.90 7,945
2/18/2019 4 AM EST 1,354.98 1,264.85 7,956
2/18/2019 5 AM EST 1,354.97 1,264.87 7,940
2/18/2019 6 AM EST 1,354.94 1,264.87 7,940
2/18/2019 7 AM EST 1,354.91 1,264.85 7,961
2/18/2019 8 AM EST 1,354.89 1,264.87 7,941
2/18/2019 9 AM EST 1,354.85 1,264.89 7,930
2/18/2019 10 AM EST 1,354.82 1,264.88 7,941
2/18/2019 11 AM EST 1,354.78 1,264.87 7,943
2/18/2019 12 PM EST 1,354.73 1,264.89 7,923
2/18/2019 1 PM EST 1,354.67 1,264.84 7,920
2/18/2019 2 PM EST 1,354.62 1,264.87 7,935
2/18/2019 3 PM EST 1,354.56 1,264.90 7,910
2/18/2019 4 PM EST 1,354.48 1,264.87 7,912
2/18/2019 5 PM EST 1,354.42 1,264.86 7,914
2/18/2019 6 PM EST 1,354.33 1,264.87 7,902
2/18/2019 7 PM EST 1,354.27 1,264.88 7,901
2/18/2019 8 PM EST 1,354.18 1,264.92 7,905
2/18/2019 9 PM EST 1,354.10 1,264.87 7,911

Elevations are in feet above sea level. Discharges are in cubic feet per second and are reported at the end of the hour.